SL-8 DEB, 2334

Orbit data source: Space-Track

SL-8 DEB, 2334 is space debris in LEO originally from a launch on Mon, 15 Mar 1965 UTC launched from the Tyuratam Missile And Space Complex (TTMTR). Debris objects in space refer to the collection of defunct objects orbiting the Earth. Examples of debris include non-operational satellites, rocket bodies, and fragments generated from explosions, collisions, or faulty payload assembly.

Loading next visibility...
Identifier
2334, 1965-020EH
Orbit
LEO
Country
Flag of CISCIS
Related business
Manufacturer
Unknown
Mission
Spacecraft
Bus & Motor
Unknown
Mass
Unknown
Launch date (UTC)
1965-03-15 (61 years ago)
Launch vehicle
Unknown
Launch site
Tyuratam Missile And Space Complex (TTMTR)
Object type
Payload
Rocket body
Debris
Shape & HBR
Unknown shape, 0.1 m
Radar Cross Section
Small (<0.1 m²)

Expand to show TLE details & history
Last TLE update: 15 hours ago

TLE from 15 hours ago
0 SL-8 DEB
1  2334U 65020EH  25308.28872053  .00001267  00000-0  16341-2 0  9991
2  2334  55.6714 294.8872 0585450  17.8383 344.2188 13.11980047821420
Epoch: 2025-11-04T06:55Z
TLE epoch observation values (Epoch: 2025-11-04T06:55:45.453Z)
Latitude
0.00002°
Longitude
147.16994°
Altitude
790.841 km
Speed
7.665 km/s
True Right ascension
19h 39m 32s
True Declination
0° 00' 00"
Sunlit
Object was in daylight at epoch
Visualization orbit readout
Latitude
Unknown
Longitude
Unknown
Altitude
Unknown
Speed
Unknown
Apparent Right ascension
Unknown
Apparent Declination
Unknown
Sunlit
N/A
Visualization observer readout
Local Sidereal Time
17:56:23
Azimuth
Unknown
Elevation
Unknown
Doppler factor
Unknown
Orbital elements
Apogee altitude
1,659.942 km
Perigee altitude
770.817 km
Semi-major axis
7,593.517 km
Eccentricity
0.05855
Inclination
55.6714°
RAAN
294.8872°
Arg. of periapsis
17.8383°
True anomaly
342.25688°
Mean anomaly
344.2188°
Eccentric anomaly
343.2522°
Mean motion
3.28004 °/min
Orbital period
109.75 mins
BSTAR
0.0016341
Loading maneuver chart data...
Computing Atmospheric mass density...
Loading historical data...
Loading historical data...
Loading historical data...
Loading historical data...
Loading historical data...
Loading historical data...
Loading historical data...

Documentation

Showing up to 5 results
|